Terminal Aerodrome Forecast
Issued by NWS

Current Version | Previous Version | Graphics & Text | Print | Product List | Glossary On
Versions: 1 2 3 4 5 6 7 8 9 10 11 12 13 14 15 16 17 18 19 20 21 22 23 24 25 26 27
000
FTUS41 KILN 130200 AAB
TAFLUK
TAF AMD
KLUK 130256Z 1303/1324 03003KT P6SM OVC035
     FM130600 33006KT P6SM BKN028 OVC100
     FM131300 33009KT P6SM SCT025 SCT100=

USA.gov is the U.S. government's official web portal to all federal, state and local government web resources and services.